YAOGAN-30 04B (43082 NORAD) Tracking and Keplerian Element Data

This shows tracking and keplerian element data for the satellite.

Feedback or suggestion? Click here.




ElementValue
Catalog43082
NameYAOGAN-30 04B
Epoch Orbit43572
Epoch Day353.92549323
Epoch Year2025
RAAN161.8647
Inclination34.9931
Eccentricity0.0004522
Argument of Perigee222.3678
Mean Anonmoly137.6681
Mean Motion15.01529196
Decay Rate1.987E-05
L11 43082U 17085B 25353.92549323 .00001987 00000+0 15261-3 0 9995
L22 43082 34.9931 161.8647 0004522 222.3678 137.6681 15.01529196435726



Live tracking and technical data element details for YAOGAN-30 04B (NORAD 43082). YAOGAN-30 04B can be tracked NOW for your location showing map with azimuth and elevation plus other details from your city location.







IsCatalogInMostPopularTable: catalog: 43082, numindb: 611
Update: records affected: 1



GetName: 43082 YAOGAN-30 04B

Hit Count: updated at: Thu, 21 May 2026 11:34:22 GMT